Tracking 19177 objects as of 24-May-2018
HD Live streaming from Space Station
objects crossing your sky now

FENGYUN 1C DEB

Track FENGYUN 1C DEB now!
10-day predictions


NORAD ID: 30676
Int'l Code: 1999-025AQJ
Perigee: 652.5 km
Apogee: 1,401.5 km
Inclination: 98.3 °
Period: 105.5 minutes
Semi major axis: 7398 km
RCS: 0.0115 m2 (small)
Launch date: May 10, 1999
Source: People's Republic of China (PRC)
Launch site: Taiyaun Space Center, China (TSC)

Note: This is SATELLITE DEBRIS
aabbcc
Your satellite tracking list
Your tracking list is empty




NASA's NSSDC Master Catalog

Two Line Element Set (TLE):
1 30676U 99025AQJ 18143.43310506  .00000442  00000-0  25127-3 0  9996
2 30676  98.2890 308.2059 0506186 244.4890 138.8054 13.64360238562798
Source of the keplerian elements: AFSPC